Wind_Speed
36 34 34 33 33 33 33 33 33 32 32 33 33 33 32 32 31 31 31 31 31 32 32 33 33 33 34 34 34 35 35 36 36 36 37 37 38 39 40 41 42 42 43
36 35 34 34 34 34 33 33 33 33 33 33 33 33 32 32 31 31 31 32 32 33 33 33 34 34 34 35 35 36 36 37 37 37 37 38 39 40 41 43 44 44 45
36 35 35 34 34 33 33 33 33 33 33 33 33 33 32 32 32 32 32 32 33 33 34 34 35 35 36 36 36 37 37 38 38 39 39 39 39 40 42 44 45 46 46
35 35 34 34 34 34 34 34 34 33 33 33 33 32 32 32 32 32 32 33 33 34 34 35 36 36 37 37 38 38 39 39 40 41 42 42 43 43 42 42 44 46 47
35 35 34 34 34 33 33 33 34 34 33 33 32 32 32 33 33 32 33 33 34 34 35 35 36 37 38 38 39 39 40 41 42 42 43 44 44 45 44 43 44 45 47
34 34 34 33 33 32 33 33 32 32 32 32 32 32 32 32 33 33 33 34 34 35 36 37 38 38 39 39 40 41 41 42 43 44 44 45 45 46 46 46 46 46 47
33 33 32 32 32 32 31 31 31 31 31 31 32 32 32 32 33 34 34 35 35 36 37 38 38 39 40 41 41 42 43 44 44 45 45 46 47 48 48 49 49 49 49
31 31 31 31 31 30 30 30 30 31 31 31 32 32 32 33 34 34 35 36 36 37 38 39 39 40 41 42 43 44 44 45 45 46 47 47 48 49 50 51 52 51 51
30 30 30 31 30 30 30 30 30 30 31 31 32 32 33 33 34 34 35 36 37 38 39 40 41 42 42 43 44 44 45 46 47 47 48 49 50 51 52 52 53 54 53
29 29 30 30 30 31 31 31 30 31 31 32 32 33 33 34 35 36 36 37 39 40 40 41 42 43 44 44 45 46 47 47 48 49 49 50 51 52 53 53 54 55 56
29 29 30 30 30 30 30 30 30 31 31 32 32 34 35 35 35 36 37 38 40 41 41 42 43 44 45 45 46 47 48 48 49 50 51 52 53 53 54 55 56 58 59
29 30 30 30 30 30 30 30 31 31 32 33 34 35 35 35 36 37 38 39 41 42 43 44 44 45 46 47 48 48 49 50 51 52 53 54 55 56 57 57 58 59 61
29 29 30 30 30 30 31 31 31 32 33 34 34 35 35 36 38 39 40 41 42 43 44 44 45 46 47 48 49 50 51 52 53 54 55 56 57 58 59 60 61 62 63
29 29 28 29 30 30 30 31 32 33 33 34 35 35 37 38 40 40 41 42 43 44 45 46 46 48 49 50 51 52 53 54 55 56 57 58 59 60 61 62 63 64 65
28 28 28 29 30 31 31 32 33 34 34 35 35 37 38 40 41 42 42 43 44 45 46 47 48 50 51 52 54 54 55 56 57 58 59 60 61 62 63 64 65 66 67
29 30 30 31 31 32 32 32 33 34 34 35 36 38 39 41 42 43 43 44 45 46 47 49 50 51 53 54 55 56 56 57 58 60 61 62 63 64 65 66 68 69 70
30 31 31 32 32 32 32 33 34 35 36 37 38 39 40 41 42 43 43 44 46 48 49 50 52 53 55 55 56 58 59 60 61 62 63 64 65 66 68 70 70 71 72
30 31 31 31 31 32 33 34 35 36 37 38 39 40 41 42 42 43 44 46 48 49 51 52 54 55 56 57 58 60 61 62 63 64 65 66 67 69 71 72 72 72 73
30 30 30 31 32 33 34 35 35 36 37 38 39 40 41 42 43 44 46 48 50 51 53 54 55 56 57 59 60 61 62 63 64 65 67 68 70 72 74 74 74 74 74
30 30 31 32 33 33 34 35 36 36 37 38 39 40 41 42 44 46 48 49 51 52 53 55 56 57 59 60 62 63 64 65 66 68 69 71 72 73 74 75 76 75 75
30 31 31 32 33 33 34 35 35 36 37 38 39 40 42 43 45 47 49 50 52 53 55 56 57 59 60 62 63 65 67 68 69 70 71 72 74 74 75 76 76 76 76
29 30 30 31 32 33 34 35 35 36 37 39 40 41 43 45 47 48 50 51 53 54 56 57 59 60 62 64 65 67 69 70 72 72 73 74 75 75 75 75 76 76 76
30 30 31 32 32 33 34 35 36 37 38 40 41 43 44 46 48 50 51 53 54 56 57 59 61 62 64 66 67 69 70 72 73 74 75 75 75 75 75 75 74 74 71
31 31 32 32 33 34 34 36 37 39 40 41 43 44 46 47 49 51 52 54 56 58 60 61 63 65 66 68 69 70 71 72 73 75 75 75 74 74 74 72 70 67 64
32 32 33 33 34 35 36 37 39 40 41 43 45 46 48 49 51 52 54 56 57 60 62 64 65 67 68 69 71 71 72 73 75 76 75 75 73 72 70 67 64 61 58
33 33 34 35 36 37 38 39 40 42 44 45 47 48 50 51 52 54 56 58 60 62 64 66 67 69 70 71 72 72 74 75 76 76 75 73 71 69 65 62 58 56 53
Wind_Direction
269 270 270 271 272 273 275 276 277 277 277 278 278 279 279 279 280 281 283 284 285 286 287 288 289 290 290 290 290 291 291 291 291 291 291 290 290 290 289 289 289 288 287
268 269 269 270 271 273 274 275 276 276 276 277 278 279 279 279 279 281 281 283 285 287 287 289 290 290 290 291 291 291 291 291 291 291 291 290 290 290 290 290 289 289 288
269 268 269 270 271 272 274 275 275 276 276 276 277 277 277 277 279 280 281 283 285 287 288 289 290 291 291 292 292 292 292 292 292 292 291 290 289 289 290 290 289 289 288
269 269 269 270 271 272 273 274 274 275 275 276 276 276 276 277 279 280 282 284 285 287 288 289 290 291 292 292 293 293 293 293 293 293 292 292 291 290 288 288 288 288 288
269 270 270 270 271 272 272 273 274 274 275 274 275 276 277 278 279 280 282 284 286 287 289 290 291 292 292 293 293 293 294 294 294 294 293 293 293 292 291 288 288 287 288
269 270 270 271 271 271 271 272 273 273 274 274 275 276 276 278 279 281 283 285 287 288 290 291 292 293 293 293 294 294 294 294 295 295 294 294 293 292 292 291 290 289 288
269 269 269 269 270 271 271 271 271 272 273 274 275 275 276 278 280 282 283 285 287 288 289 291 292 293 293 294 294 295 295 296 296 296 296 295 295 294 293 293 292 291 290
269 269 269 269 270 270 270 270 270 271 273 274 275 276 277 279 280 282 284 285 287 288 290 291 293 294 294 294 295 296 296 297 297 297 296 296 296 295 295 294 294 293 292
268 268 269 269 269 270 270 270 271 272 273 274 275 276 278 280 281 283 285 286 288 289 290 292 293 294 295 295 296 297 297 297 297 297 297 297 297 296 296 296 295 295 294
269 269 268 269 269 270 270 271 272 272 273 274 276 277 279 280 281 283 285 286 288 289 291 292 293 295 296 296 297 297 297 298 298 298 298 298 297 297 297 296 296 296 296
270 270 269 269 270 270 271 272 272 272 273 274 276 278 279 281 282 284 286 287 289 291 291 292 294 295 296 296 297 298 298 299 299 298 298 298 298 298 297 297 297 297 296
270 270 270 270 271 271 270 270 271 272 273 275 277 279 280 282 284 285 286 288 290 291 292 293 294 295 296 296 297 298 299 299 299 299 299 299 298 298 298 298 298 297 297
269 269 270 271 271 270 270 271 271 272 273 276 278 279 280 282 284 285 287 289 290 291 292 294 294 295 296 297 298 298 299 299 299 299 299 299 299 299 298 298 298 298 298
269 270 271 271 270 270 270 271 272 273 275 277 278 279 281 282 284 286 288 289 290 291 293 294 295 295 296 297 298 298 299 299 299 299 299 299 299 299 299 299 299 299 298
269 269 270 271 271 271 272 273 274 275 276 277 278 279 281 283 285 287 288 290 290 292 293 294 295 296 297 298 298 299 299 299 299 299 299 300 300 300 300 300 299 299 298
270 271 272 273 272 272 274 275 276 276 277 278 279 281 283 284 286 287 288 289 290 292 293 294 295 297 298 298 299 299 299 300 300 300 300 300 300 300 300 300 300 300 299
272 273 273 273 272 273 274 275 276 277 278 279 280 282 283 285 286 287 288 289 291 292 294 295 296 297 298 298 299 299 300 300 300 301 301 301 301 301 301 301 300 300 300
274 274 273 273 273 274 275 276 277 278 279 280 281 282 283 285 286 287 288 290 291 293 295 296 297 298 298 299 299 299 300 301 301 301 301 301 302 302 301 301 301 300 300
275 274 274 274 275 276 277 277 278 279 280 281 282 283 284 285 287 288 290 291 293 294 296 297 297 298 299 299 299 300 300 301 301 302 302 302 303 302 302 301 301 301 301
274 274 275 276 277 277 278 278 279 280 281 282 283 284 285 287 288 290 291 293 294 295 296 297 298 298 299 299 300 300 301 301 301 302 303 303 303 303 302 302 302 302 301
274 276 277 278 279 279 280 280 281 282 283 284 285 286 287 289 291 292 293 294 295 296 297 298 298 299 299 300 300 301 301 302 302 303 303 304 304 303 303 302 302 302 302
276 278 279 280 281 281 282 282 283 284 285 286 287 288 290 291 292 293 294 295 296 297 297 298 299 300 300 301 301 301 302 302 303 304 304 304 304 304 303 303 303 303 302
277 279 281 282 283 283 284 284 285 286 287 288 290 291 292 293 294 295 296 296 297 297 298 299 300 300 301 301 301 302 302 303 303 304 305 305 305 304 304 304 304 303 302
278 281 283 284 284 285 285 285 286 287 289 290 292 293 294 295 295 296 297 297 298 299 299 300 301 301 302 302 302 302 303 303 303 304 305 305 305 305 305 305 304 303 302
279 282 283 284 285 286 286 287 288 289 291 292 293 294 295 296 296 297 298 299 299 300 301 302 302 302 302 302 303 303 303 304 304 305 305 306 305 305 305 304 304 303 302
281 282 284 285 287 287 288 288 289 291 292 294 295 296 296 297 298 299 299 300 301 301 302 302 303 303 303 303 303 304 304 304 305 305 306 306 306 306 305 304 303 303 302
Height
5816 5816 5816 5815 5814 5814 5813 5812 5811 5810 5809 5808 5807 5806 5804 5803 5802 5800 5799 5797 5795 5793 5791 5789 5787 5784 5782 5780 5777 5775 5772 5770 5767 5764 5761 5758 5755 5752 5749 5746 5744 5742 5739
5808 5808 5808 5807 5807 5806 5805 5804 5803 5803 5802 5801 5799 5798 5797 5796 5795 5793 5791 5790 5788 5786 5784 5782 5779 5777 5774 5772 5769 5767 5764 5761 5758 5756 5753 5751 5748 5743 5740 5736 5733 5731 5728
5800 5800 5800 5799 5799 5798 5797 5797 5796 5795 5794 5793 5792 5791 5790 5788 5787 5786 5784 5782 5780 5778 5776 5774 5772 5769 5767 5764 5761 5758 5756 5753 5750 5747 5744 5742 5739 5736 5732 5727 5723 5720 5717
5792 5792 5792 5791 5791 5790 5790 5789 5788 5787 5786 5785 5784 5783 5782 5781 5780 5778 5777 5775 5773 5771 5769 5766 5764 5761 5758 5756 5753 5750 5747 5744 5741 5738 5734 5731 5728 5726 5724 5719 5714 5710 5706
5784 5784 5783 5783 5783 5782 5781 5781 5780 5779 5778 5778 5777 5776 5775 5774 5772 5771 5769 5767 5765 5763 5761 5758 5755 5753 5750 5747 5744 5741 5738 5734 5731 5728 5725 5721 5718 5714 5712 5710 5705 5701 5696
5775 5775 5775 5775 5775 5774 5773 5773 5772 5771 5771 5770 5769 5768 5767 5766 5765 5763 5761 5759 5757 5755 5752 5750 5747 5744 5741 5738 5735 5732 5728 5725 5721 5717 5714 5710 5707 5703 5700 5697 5694 5691 5686
5767 5767 5767 5767 5766 5766 5765 5765 5764 5764 5763 5762 5761 5760 5759 5758 5757 5755 5753 5751 5749 5747 5744 5741 5738 5735 5732 5729 5725 5722 5718 5714 5711 5707 5703 5699 5695 5691 5688 5684 5681 5678 5675
5759 5759 5759 5758 5758 5758 5757 5757 5756 5756 5755 5754 5753 5753 5752 5750 5749 5747 5745 5743 5740 5738 5735 5732 5729 5726 5722 5719 5715 5712 5708 5704 5700 5696 5692 5688 5683 5679 5675 5671 5667 5665 5662
5751 5751 5751 5751 5750 5750 5750 5749 5749 5748 5747 5746 5745 5744 5743 5742 5740 5739 5736 5734 5732 5729 5726 5723 5719 5716 5712 5709 5705 5701 5697 5693 5689 5684 5680 5676 5671 5667 5662 5658 5653 5650 5647
5743 5743 5743 5743 5742 5742 5742 5741 5741 5740 5739 5738 5737 5736 5735 5733 5732 5730 5728 5725 5722 5719 5716 5713 5710 5706 5702 5698 5694 5690 5686 5682 5677 5673 5668 5663 5659 5654 5649 5644 5639 5634 5630
5735 5735 5735 5735 5734 5734 5734 5733 5733 5732 5731 5730 5729 5728 5726 5725 5723 5721 5718 5716 5713 5710 5707 5703 5699 5696 5692 5687 5683 5679 5675 5670 5665 5661 5656 5651 5646 5641 5636 5630 5625 5620 5615
5727 5727 5727 5727 5726 5726 5726 5725 5724 5724 5723 5722 5721 5719 5718 5716 5714 5712 5709 5706 5703 5700 5696 5693 5689 5685 5681 5676 5672 5667 5663 5658 5653 5648 5643 5638 5632 5627 5621 5616 5610 5605 5599
5719 5719 5719 5719 5718 5718 5717 5717 5716 5715 5714 5713 5712 5710 5709 5706 5704 5702 5699 5696 5693 5689 5686 5682 5678 5674 5669 5665 5660 5656 5651 5646 5640 5635 5630 5624 5618 5612 5606 5601 5594 5588 5582
5712 5711 5711 5711 5710 5710 5709 5708 5708 5707 5706 5704 5703 5701 5699 5697 5694 5692 5689 5685 5682 5678 5675 5671 5666 5662 5658 5653 5648 5643 5638 5633 5627 5622 5616 5610 5603 5597 5591 5585 5578 5571 5565
5703 5703 5703 5702 5702 5701 5700 5700 5699 5698 5696 5695 5693 5692 5689 5687 5684 5681 5678 5675 5671 5667 5663 5659 5655 5650 5646 5641 5635 5630 5625 5619 5614 5607 5601 5595 5588 5581 5574 5568 5561 5554 5547
5695 5695 5695 5694 5693 5693 5692 5691 5690 5688 5687 5685 5684 5681 5679 5676 5674 5670 5667 5664 5660 5656 5652 5647 5643 5638 5633 5627 5622 5616 5611 5605 5599 5593 5586 5579 5572 5565 5558 5550 5542 5535 5527
5687 5686 5686 5685 5684 5683 5683 5681 5680 5679 5677 5675 5673 5671 5669 5666 5663 5659 5656 5652 5648 5644 5640 5635 5630 5625 5619 5613 5608 5602 5596 5590 5583 5577 5570 5563 5555 5547 5540 5532 5525 5516 5507
5678 5677 5677 5676 5675 5674 5673 5672 5670 5669 5667 5665 5663 5660 5657 5655 5651 5648 5645 5641 5637 5632 5627 5622 5617 5611 5605 5599 5593 5586 5580 5574 5567 5560 5553 5545 5538 5529 5520 5513 5506 5498 5489
5669 5668 5668 5667 5666 5665 5664 5662 5661 5659 5657 5655 5652 5649 5646 5643 5640 5637 5633 5629 5624 5619 5614 5609 5603 5597 5591 5584 5577 5570 5564 5558 5551 5544 5535 5527 5519 5511 5501 5493 5486 5478 5470
5660 5659 5659 5658 5657 5655 5654 5652 5650 5648 5646 5644 5641 5638 5635 5632 5629 5625 5620 5616 5611 5606 5601 5595 5589 5583 5576 5569 5561 5553 5547 5541 5535 5527 5518 5510 5500 5491 5480 5471 5463 5456 5448
5651 5651 5650 5648 5647 5645 5644 5642 5640 5638 5636 5633 5630 5627 5624 5620 5617 5612 5608 5603 5598 5593 5587 5581 5575 5568 5561 5554 5546 5537 5529 5522 5515 5508 5500 5491 5481 5471 5461 5450 5442 5434 5425
5642 5641 5640 5639 5637 5636 5634 5632 5630 5628 5625 5622 5619 5616 5612 5608 5604 5599 5595 5589 5584 5578 5572 5566 5560 5552 5545 5537 5529 5520 5511 5502 5495 5488 5480 5471 5461 5451 5441 5431 5422 5412 5403
5633 5632 5631 5629 5628 5626 5624 5622 5619 5617 5614 5611 5608 5604 5600 5596 5591 5586 5581 5575 5569 5563 5557 5550 5544 5536 5528 5520 5511 5503 5494 5484 5475 5468 5460 5450 5440 5430 5421 5412 5402 5391 5382
5624 5623 5621 5620 5618 5616 5614 5611 5609 5606 5603 5599 5596 5592 5587 5583 5578 5572 5567 5561 5554 5547 5541 5533 5526 5519 5511 5502 5493 5485 5476 5467 5457 5449 5440 5431 5421 5411 5402 5392 5383 5373 5365
5614 5613 5611 5610 5608 5605 5603 5600 5597 5594 5591 5587 5583 5579 5574 5569 5564 5558 5552 5546 5539 5531 5524 5516 5508 5501 5494 5484 5474 5465 5457 5448 5438 5428 5421 5412 5402 5393 5384 5375 5366 5357 5350
5605 5603 5601 5599 5597 5594 5592 5589 5586 5582 5579 5574 5570 5565 5560 5555 5549 5543 5538 5530 5523 5515 5506 5498 5490 5482 5474 5465 5455 5446 5437 5427 5417 5407 5400 5391 5382 5374 5365 5357 5350 5342 5335